Location: Navajo
(48.7922°N, 105.0603°W)
Time: 07:42:33
(UTC+00:00)

STARS - Visible Passes

Search period start: 25 June 2022 00:00
Search period end: 05 July 2022 00:00
Orbit: 622 x 636 km, 98.2° (Epoch: 24 June)

Date Brightness Start Highest point End Pass type
(mag) Time Alt. Az. Time Alt. Az. Time Alt. Az.
25 Jun ? 04:24:53 10° ENE 04:26:46 12° E 04:28:39 10° ESE visible
25 Jun ? 05:59:12 10° NNE 06:03:38 80° WNW 06:06:07 25° SSW visible
25 Jun ? 07:37:34 10° NW 07:39:08 12° NW 07:40:43 10° WNW visible
26 Jun ? 04:43:56 10° NE 04:47:07 19° E 04:49:05 15° SE visible
26 Jun ? 06:19:25 10° N 06:23:41 51° WNW 06:26:26 20° SW visible
27 Jun ? 05:03:32 10° NE 05:07:23 29° E 05:09:24 20° SE visible
27 Jun ? 06:39:43 10° N 06:43:41 33° WNW 06:46:45 15° SW visible
28 Jun ? 05:23:22 10° NNE 05:27:36 45° E 05:29:43 26° SSE visible
28 Jun ? 07:00:10 10° N 07:03:37 23° WNW 07:07:03 10° WSW visible
29 Jun ? 05:43:21 10° NNE 05:47:46 72° ESE 05:50:01 28° S visible
29 Jun ? 07:20:51 10° NNW 07:23:30 16° WNW 07:26:09 10° W visible
30 Jun ? 04:28:52 10° ENE 04:31:03 13° E 04:32:58 11° ESE visible
30 Jun ? 06:03:27 10° N 06:07:51 74° WNW 06:10:19 25° SSW visible
30 Jun ? 07:42:11 10° NW 07:43:19 11° NW 07:44:28 10° WNW visible
01 Jul ? 04:48:04 10° NE 04:51:23 21° E 04:53:16 16° SE visible
01 Jul ? 06:23:40 10° N 06:27:53 47° WNW 06:30:37 20° SW visible
02 Jul ? 05:07:42 10° NNE 05:11:38 31° E 05:13:34 22° SE visible
02 Jul ? 06:44:00 10° N 06:47:52 31° WNW 06:50:55 14° WSW visible
03 Jul ? 05:27:33 10° NNE 05:31:50 49° E 05:33:51 27° SSE visible
03 Jul ? 07:04:28 10° NNW 07:07:47 21° WNW 07:11:05 10° WSW visible
04 Jul ? 05:47:33 10° NNE 05:51:58 78° ESE 05:54:09 29° S visible
04 Jul ? 07:25:12 10° NNW 07:27:39 15° WNW 07:30:06 10° W visible
